K5GHS-1 Weather Reports


Display with metric or nautical units.
time (UTC)temp
F
wind
direction
speed
MPH
gust
MPH
rain 1hr
in
rain 24hr
in
rain mn
in
humidity
%
barometer
mb
20210926014752 75 70 0.0 0.0 0.00 0.00 0.00 48 1017.9
20210926014252 75 70 0.0 0.0 0.00 0.00 0.00 47 1017.9
20210926013754 75 70 0.0 0.0 0.00 0.00 0.00 47 1017.8
20210926013252 75 70 0.0 0.0 0.00 0.00 0.00 47 1018.0
20210926012753 76 70 0.0 0.0 0.00 0.00 0.00 46 1017.7
20210926012255 76 70 0.0 0.0 0.00 0.00 0.00 46 1017.9
20210926011752 76 70 0.0 0.0 0.00 0.00 0.00 46 1017.7
20210926011252 76 70 0.0 0.0 0.00 0.00 0.00 45 1017.7
20210926005754 78 70 0.0 0.0 0.00 0.00 0.00 44 1017.7
20210926005256 78 69 0.0 0.0 0.00 0.00 0.00 43 1017.4
20210926004754 78 70 0.0 0.0 0.00 0.00 0.00 43 1017.6
20210926003755 79 69 0.0 0.0 0.00 0.00 0.00 42 1017.5
20210926003255 80 69 0.0 0.0 0.00 0.00 0.00 40 1017.4
20210926002754 80 70 0.0 0.0 0.00 0.00 0.00 40 1017.4
20210926002257 81 69 0.0 0.0 0.00 0.00 0.00 38 1017.4
20210926001258 82 68 0.0 0.0 0.00 0.00 0.00 37 1017.4
20210926000802 84 67 0.0 0.0 0.00 0.00 0.00 36 1017.6
20210926000256 84 72 1.0 2.0 0.00 0.00 0.00 34 1017.5
20210925235754 84 81 1.0 2.0 0.00 0.00 0.00 34 1017.6
20210925234755 85 101 1.0 2.0 0.00 0.00 0.00 35 1017.7
20210925234254 86 78 2.0 3.0 0.00 0.00 0.00 33 1017.6
20210925233755 86 66 1.0 2.0 0.00 0.00 0.00 32 1017.6
20210925233255 86 80 2.0 2.0 0.00 0.00 0.00 33 1017.5
20210925232755 86 65 0.0 3.0 0.00 0.00 0.00 33 1017.5
20210925231755 86 117 2.0 4.0 0.00 0.00 0.00 33 1017.4
20210925231255 86 68 0.0 3.0 0.00 0.00 0.00 33 1017.5
20210925230756 87 92 2.0 3.0 0.00 0.00 0.00 33 1017.6
20210925230256 87 56 0.0 2.0 0.00 0.00 0.00 33 1017.6
20210925225755 87 80 2.0 2.0 0.00 0.00 0.00 32 1017.8
20210925225254 88 128 3.0 5.0 0.00 0.00 0.00 31 1017.5
20210925224757 89 121 4.0 5.0 0.00 0.00 0.00 31 1017.5
20210925224255 90 82 2.0 3.0 0.00 0.00 0.00 30 1017.8
20210925223255 89 121 3.0 6.0 0.00 0.00 0.00 30 1017.6
20210925222757 90 83 2.0 4.0 0.00 0.00 0.00 30 1017.6
20210925221755 90 148 3.0 4.0 0.00 0.00 0.00 29 1017.6
20210925220755 90 71 3.0 4.0 0.00 0.00 0.00 29 1017.6
20210925220256 91 76 0.0 3.0 0.00 0.00 0.00 29 1018.0
20210925215257 92 58 2.0 4.0 0.00 0.00 0.00 29 1017.7
20210925214255 90 54 2.0 2.0 0.00 0.00 0.00 30 1017.7
20210925213755 91 89 2.0 3.0 0.00 0.00 0.00 28 1017.7
20210925213256 91 87 2.0 3.0 0.00 0.00 0.00 27 1018.0
20210925212755 90 55 1.0 5.0 0.00 0.00 0.00 27 1018.0
20210925212258 90 117 4.0 5.0 0.00 0.00 0.00 28 1017.9
20210925211755 90 48 1.0 3.0 0.00 0.00 0.00 27 1018.0
20210925211255 89 76 2.0 3.0 0.00 0.00 0.00 29 1018.1
20210925210756 90 131 2.0 5.0 0.00 0.00 0.00 29 1018.4
20210925205755 90 135 3.0 5.0 0.00 0.00 0.00 28 1018.2
20210925204755 90 134 4.0 5.0 0.00 0.00 0.00 27 1018.4
20210925204254 91 111 2.0 5.0 0.00 0.00 0.00 27 1018.5
20210925203757 91 74 0.0 4.0 0.00 0.00 0.00 28 1018.4
20210925203256 90 120 3.0 6.0 0.00 0.00 0.00 28 1018.4
20210925202755 90 169 5.0 7.0 0.00 0.00 0.00 28 1018.4
20210925202258 90 122 3.0 5.0 0.00 0.00 0.00 28 1018.6
20210925201755 90 125 2.0 4.0 0.00 0.00 0.00 28 1018.5
20210925201255 90 105 2.0 9.0 0.00 0.00 0.00 29 1018.5
20210925200756 89 100 2.0 3.0 0.00 0.00 0.00 29 1018.6
20210925200255 89 122 1.0 4.0 0.00 0.00 0.00 30 1018.8
20210925195755 90 42 3.0 5.0 0.00 0.00 0.00 30 1018.6
20210925195256 90 72 3.0 3.0 0.00 0.00 0.00 30 1019.0
20210925194755 89 61 2.0 4.0 0.00 0.00 0.00 30 1018.8
20210925194255 87 106 3.0 4.0 0.00 0.00 0.00 30 1018.9
20210925193755 88 138 4.0 6.0 0.00 0.00 0.00 31 1019.1
20210925193255 88 146 2.0 9.0 0.00 0.00 0.00 32 1019.2
20210925192756 88 83 1.0 5.0 0.00 0.00 0.00 31 1019.2
20210925192259 88 66 2.0 4.0 0.00 0.00 0.00 30 1019.5
20210925191757 89 133 1.0 3.0 0.00 0.00 0.00 31 1019.3
20210925191300 89 140 3.0 5.0 0.00 0.00 0.00 29 1019.6
20210925190256 88 72 3.0 5.0 0.00 0.00 0.00 30 1019.5
20210925185759 89 102 3.0 5.0 0.00 0.00 0.00 29 1019.6
20210925184759 89 332 2.0 3.0 0.00 0.00 0.00 32 1020.0
20210925184255 88 67 0.0 3.0 0.00 0.00 0.00 32 1020.1
20210925183756 88 59 1.0 4.0 0.00 0.00 0.00 32 1019.9
20210925183255 89 88 1.0 3.0 0.00 0.00 0.00 32 1020.0
20210925182759 89 56 1.0 4.0 0.00 0.00 0.00 33 1019.9
20210925182301 89 79 1.0 4.0 0.00 0.00 0.00 32 1020.4
20210925181755 88 100 2.0 3.0 0.00 0.00 0.00 33 1020.1
20210925181255 89 79 2.0 4.0 0.00 0.00 0.00 32 1020.3
20210925180756 88 53 1.0 2.0 0.00 0.00 0.00 33 1020.3
20210925180256 87 79 2.0 4.0 0.00 0.00 0.00 33 1020.3
20210925175256 87 57 1.0 4.0 0.00 0.00 0.00 33 1020.3
20210925174755 88 92 2.0 3.0 0.00 0.00 0.00 33 1020.6
20210925174256 87 86 1.0 2.0 0.00 0.00 0.00 34 1020.7
20210925173755 87 126 1.0 4.0 0.00 0.00 0.00 34 1021.1
20210925173257 88 62 0.0 2.0 0.00 0.00 0.00 32 1020.8
20210925172755 87 27 2.0 2.0 0.00 0.00 0.00 34 1020.8
20210925171756 87 57 1.0 2.0 0.00 0.00 0.00 36 1021.0
20210925171256 87 23 1.0 3.0 0.00 0.00 0.00 36 1020.9
20210925170756 86 62 1.0 2.0 0.00 0.00 0.00 37 1020.9
20210925165756 86 39 1.0 2.0 0.00 0.00 0.00 39 1021.1
20210925165255 86 30 1.0 3.0 0.00 0.00 0.00 38 1021.2
20210925164755 85 54 0.0 2.0 0.00 0.00 0.00 38 1021.1
20210925164256 85 56 1.0 3.0 0.00 0.00 0.00 39 1021.0
20210925163756 85 37 1.0 2.0 0.00 0.00 0.00 40 1021.0
20210925163256 85 59 1.0 3.0 0.00 0.00 0.00 39 1021.1
20210925162756 85 53 2.0 3.0 0.00 0.00 0.00 40 1021.2
20210925162300 86 64 0.0 2.0 0.00 0.00 0.00 40 1021.1
20210925161755 85 75 2.0 2.0 0.00 0.00 0.00 40 1021.3
20210925161258 84 70 0.0 3.0 0.00 0.00 0.00 42 1021.4
20210925160759 84 43 2.0 3.0 0.00 0.00 0.00 42 1021.4
20210925160259 84 218 2.0 3.0 0.00 0.00 0.00 42 1021.2
20210925155754 83 61 2.0 3.0 0.00 0.00 0.00 44 1021.2
20210925155254 83 121 1.0 3.0 0.00 0.00 0.00 45 1021.2
20210925154754 83 50 0.0 2.0 0.00 0.00 0.00 45 1021.2
20210925154254 83 39 2.0 3.0 0.00 0.00 0.00 44 1021.3
20210925153753 83 62 0.0 2.0 0.00 0.00 0.00 44 1021.4
20210925153253 82 84 1.0 4.0 0.00 0.00 0.00 47 1021.3
20210925152755 82 61 1.0 2.0 0.00 0.00 0.00 46 1021.3
20210925152256 81 73 0.0 2.0 0.00 0.00 0.00 47 1021.0
20210925151753 80 61 1.0 2.0 0.00 0.00 0.00 47 1021.2
20210925151255 80 31 1.0 2.0 0.00 0.00 0.00 48 1021.4
20210925150757 80 74 1.0 2.0 0.00 0.00 0.00 48 1021.0
20210925150253 79 70 1.0 2.0 0.00 0.00 0.00 49 1021.1
20210925145758 79 67 1.0 2.0 0.00 0.00 0.00 49 1021.3
20210925145300 77 67 0.0 2.0 0.00 0.00 0.00 51 1021.1
20210925144754 77 71 0.0 2.0 0.00 0.00 0.00 52 1021.1
20210925144253 77 63 0.0 2.0 0.00 0.00 0.00 52 1021.2
20210925143758 77 56 0.0 2.0 0.00 0.00 0.00 51 1020.9
20210925143257 76 66 0.0 2.0 0.00 0.00 0.00 53 1020.9
20210925142837 76 67 0.0 3.0 0.00 0.00 0.00 52 1021.0
20210925142305 76 62 0.0 2.0 0.00 0.00 0.00 54 1020.9
20210925141802 74 63 0.0 2.0 0.00 0.00 0.00 56 1020.9
20210925141523 74 64 0.0 2.0 0.00 0.00 0.00 55 1020.9
20210925140800 72 40 1.0 2.0 0.00 0.00 0.00 58 1020.8
20210925140254 71 58 0.0 0.0 0.00 0.00 0.00 61 1020.8
20210925135756 71 68 0.0 2.0 0.00 0.00 0.00 61 1020.7
20210925135259 70 67 0.0 0.0 0.00 0.00 0.00 63 1020.7
20210925134753 68 65 0.0 2.0 0.00 0.00 0.00 67 1020.6
20210925134256 66 71 1.0 2.0 0.00 0.00 0.00 70 1020.6
20210925133802 62 74 1.0 2.0 0.00 0.00 0.00 78 1020.5
20210925133254 62 69 0.0 0.0 0.00 0.00 0.00 82 1020.4
20210925132755 61 69 0.0 0.0 0.00 0.00 0.00 83 1020.6
20210925132301 60 69 0.0 0.0 0.00 0.00 0.00 84 1020.5
20210925131754 60 69 0.0 0.0 0.00 0.00 0.00 85 1020.5
20210925131254 59 69 0.0 0.0 0.00 0.00 0.00 85 1020.3
20210925130803 59 69 0.0 0.0 0.00 0.00 0.00 85 1020.4
20210925130253 58 69 0.0 0.0 0.00 0.00 0.00 85 1020.2
20210925125755 58 69 0.0 0.0 0.00 0.00 0.00 85 1020.3
20210925125259 58 69 0.0 0.0 0.00 0.00 0.00 85 1020.2
20210925124754 58 69 0.0 0.0 0.00 0.00 0.00 85 1020.3
20210925124254 58 69 0.0 0.0 0.00 0.00 0.00 84 1020.2
20210925123801 58 69 0.0 0.0 0.00 0.00 0.00 84 1020.0
20210925123255 58 69 0.0 0.0 0.00 0.00 0.00 84 1020.1
20210925122757 58 69 0.0 0.0 0.00 0.00 0.00 84 1020.1
20210925122259 58 69 0.0 0.0 0.00 0.00 0.00 83 1020.0
20210925121754 58 69 0.0 0.0 0.00 0.00 0.00 83 1020.0
20210925121255 58 69 0.0 0.0 0.00 0.00 0.00 83 1019.9
20210925120803 58 69 0.0 0.0 0.00 0.00 0.00 84 1019.8
20210925120254 58 69 0.0 0.0 0.00 0.00 0.00 85 1019.8
20210925115755 57 69 0.0 0.0 0.00 0.00 0.00 86 1019.7
20210925115255 57 69 0.0 0.0 0.00 0.00 0.00 86 1019.7
20210925114754 57 69 0.0 0.0 0.00 0.00 0.00 86 1019.7
20210925114253 56 69 0.0 0.0 0.00 0.00 0.00 86 1019.5
20210925113754 57 69 0.0 0.0 0.00 0.00 0.00 85 1019.6
20210925113254 57 69 0.0 0.0 0.00 0.00 0.00 85 1019.4
20210925112754 57 69 0.0 0.0 0.00 0.00 0.00 85 1019.4
20210925112256 57 69 0.0 0.0 0.00 0.00 0.00 85 1019.5
20210925111754 57 69 0.0 0.0 0.00 0.00 0.00 84 1019.2
20210925111255 58 69 0.0 0.0 0.00 0.00 0.00 83 1019.2
20210925110800 58 69 0.0 0.0 0.00 0.00 0.00 83 1019.2
20210925110255 58 69 0.0 0.0 0.00 0.00 0.00 83 1019.3
20210925105756 58 69 0.0 0.0 0.00 0.00 0.00 83 1019.2
20210925105305 58 69 0.0 0.0 0.00 0.00 0.00 83 1019.0
20210925104757 58 69 0.0 0.0 0.00 0.00 0.00 83 1019.0
20210925104255 58 69 0.0 0.0 0.00 0.00 0.00 82 1019.0
20210925103802 58 69 0.0 0.0 0.00 0.00 0.00 82 1018.9
20210925103255 59 69 0.0 0.0 0.00 0.00 0.00 81 1019.0
20210925102757 59 69 0.0 0.0 0.00 0.00 0.00 81 1019.0
20210925102317 59 69 0.0 0.0 0.00 0.00 0.00 81 1018.9
20210925101754 59 69 0.0 0.0 0.00 0.00 0.00 80 1019.0
20210925101258 60 69 0.0 0.0 0.00 0.00 0.00 80 1018.9
20210925100759 60 69 0.0 0.0 0.00 0.00 0.00 79 1018.7
20210925100254 60 69 0.0 0.0 0.00 0.00 0.00 79 1018.6
20210925095755 60 69 0.0 0.0 0.00 0.00 0.00 77 1018.8
20210925095301 61 69 0.0 0.0 0.00 0.00 0.00 77 1018.7
20210925094754 61 69 0.0 0.0 0.00 0.00 0.00 76 1018.7
20210925094254 62 69 0.0 0.0 0.00 0.00 0.00 75 1018.6
20210925093802 62 69 0.0 0.0 0.00 0.00 0.00 74 1018.6
20210925093254 62 69 0.0 0.0 0.00 0.00 0.00 73 1018.4
20210925092755 62 69 0.0 0.0 0.00 0.00 0.00 73 1018.8
20210925092258 62 69 0.0 0.0 0.00 0.00 0.00 74 1018.5
20210925091754 62 69 0.0 0.0 0.00 0.00 0.00 74 1018.3
20210925091255 62 69 0.0 0.0 0.00 0.00 0.00 73 1018.5
20210925090801 62 68 0.0 0.0 0.00 0.00 0.00 73 1018.3
20210925090254 62 68 0.0 0.0 0.00 0.00 0.00 72 1018.5
20210925085754 62 68 0.0 0.0 0.00 0.00 0.00 72 1018.4
20210925085254 62 68 0.0 0.0 0.00 0.00 0.00 72 1018.5
20210925084758 63 68 0.0 0.0 0.00 0.00 0.00 72 1018.3
20210925084255 63 68 0.0 0.0 0.00 0.00 0.00 72 1018.4
20210925083759 63 68 0.0 0.0 0.00 0.00 0.00 72 1018.4
20210925083254 63 69 0.0 0.0 0.00 0.00 0.00 71 1018.4
20210925082755 63 69 0.0 0.0 0.00 0.00 0.00 71 1018.4
20210925082300 63 68 0.0 0.0 0.00 0.00 0.00 70 1018.4
20210925081755 63 64 0.0 0.0 0.00 0.00 0.00 71 1018.5
20210925081254 64 59 0.0 0.0 0.00 0.00 0.00 70 1018.4
20210925080804 64 61 0.0 0.0 0.00 0.00 0.00 70 1018.4
20210925080254 63 60 0.0 0.0 0.00 0.00 0.00 71 1018.5
20210925075754 63 66 0.0 0.0 0.00 0.00 0.00 70 1018.6
20210925075254 63 66 0.0 0.0 0.00 0.00 0.00 71 1018.6
20210925074754 64 66 0.0 0.0 0.00 0.00 0.00 71 1018.3
20210925074254 64 66 0.0 0.0 0.00 0.00 0.00 70 1018.3
20210925073755 64 67 0.0 0.0 0.00 0.00 0.00 70 1018.3
20210925073254 64 67 0.0 0.0 0.00 0.00 0.00 71 1018.4
20210925072754 64 66 0.0 0.0 0.00 0.00 0.00 70 1018.2
20210925072257 64 66 0.0 0.0 0.00 0.00 0.00 70 1018.1
20210925071849 64 66 0.0 0.0 0.00 0.00 0.00 70 1018.3
20210925071254 64 66 0.0 0.0 0.00 0.00 0.00 69 1018.4
20210925070754 64 66 0.0 0.0 0.00 0.00 0.00 69 1018.2
20210925070254 64 66 0.0 0.0 0.00 0.00 0.00 69 1018.7
20210925065754 64 66 0.0 0.0 0.00 0.00 0.00 68 1018.5
20210925065255 64 65 0.0 0.0 0.00 0.00 0.00 68 1018.4
20210925064754 65 65 0.0 0.0 0.00 0.00 0.00 68 1018.4
20210925064254 65 65 0.0 0.0 0.00 0.00 0.00 67 1018.3
20210925063754 65 65 0.0 0.0 0.00 0.00 0.00 66 1018.2
20210925063254 65 64 0.0 0.0 0.00 0.00 0.00 65 1018.3
20210925062807 66 64 0.0 0.0 0.00 0.00 0.00 64 1018.3
20210925055814 69 73 1.0 2.0 0.00 0.00 0.00 57 1018.1
20210925055314 70 64 0.0 0.0 0.00 0.00 0.00 56 1018.2
20210925054814 70 64 1.0 2.0 0.00 0.00 0.00 55 1018.1
20210925054314 70 76 1.0 3.0 0.00 0.00 0.00 55 1018.0
20210925053814 70 65 3.0 5.0 0.00 0.00 0.00 55 1018.1
20210925053314 70 94 2.0 3.0 0.00 0.00 0.00 55 1018.2
20210925052815 70 78 2.0 2.0 0.00 0.00 0.00 55 1018.2
20210925052316 70 77 1.0 2.0 0.00 0.00 0.00 54 1018.1
20210925051813 70 66 2.0 2.0 0.00 0.00 0.00 54 1018.3
20210925051314 71 95 2.0 2.0 0.00 0.00 0.00 54 1018.3
20210925050814 70 72 2.0 4.0 0.00 0.00 0.00 54 1018.1
20210925050314 70 73 1.0 2.0 0.00 0.00 0.00 56 1018.2
20210925045814 70 65 0.0 3.0 0.00 0.00 0.00 56 1018.2
20210925045314 69 76 1.0 2.0 0.00 0.00 0.00 56 1018.2
20210925044814 70 67 0.0 0.0 0.00 0.00 0.00 56 1018.2
20210925044316 70 76 0.0 2.0 0.00 0.00 0.00 56 1018.2
20210925043826 70 85 2.0 2.0 0.00 0.00 0.00 55 1018.2
20210925043314 70 65 0.0 0.0 0.00 0.00 0.00 56 1018.1
20210925042814 70 66 0.0 2.0 0.00 0.00 0.00 55 1018.1
20210925042317 71 84 1.0 2.0 0.00 0.00 0.00 55 1018.3
20210925041814 70 63 0.0 2.0 0.00 0.00 0.00 56 1018.0
20210925041314 70 69 0.0 0.0 0.00 0.00 0.00 58 1018.4
20210925040814 70 59 0.0 0.0 0.00 0.00 0.00 56 1018.2
20210925040315 70 68 0.0 2.0 0.00 0.00 0.00 56 1018.2
20210925035815 69 67 0.0 0.0 0.00 0.00 0.00 58 1018.1
20210925035314 69 65 0.0 0.0 0.00 0.00 0.00 57 1018.2
20210925034814 70 76 0.0 0.0 0.00 0.00 0.00 57 1018.1
20210925034314 70 66 0.0 0.0 0.00 0.00 0.00 56 1018.1
20210925033314 71 65 0.0 0.0 0.00 0.00 0.00 54 1018.0
20210925032814 71 67 0.0 2.0 0.00 0.00 0.00 54 1018.0
20210925032317 71 67 0.0 0.0 0.00 0.00 0.00 54 1017.9
20210925031814 72 65 0.0 0.0 0.00 0.00 0.00 53 1017.8
20210925031314 72 65 0.0 0.0 0.00 0.00 0.00 52 1017.7
20210925030817 72 69 0.0 3.0 0.00 0.00 0.00 51 1017.7
20210925030314 72 67 0.0 0.0 0.00 0.00 0.00 52 1017.9
20210925025814 73 72 1.0 2.0 0.00 0.00 0.00 51 1017.8
20210925025314 73 66 0.0 0.0 0.00 0.00 0.00 50 1017.8
20210925024814 74 77 1.0 3.0 0.00 0.00 0.00 49 1017.8
20210925024314 74 71 1.0 2.0 0.00 0.00 0.00 49 1017.7
20210925023815 74 71 0.0 2.0 0.00 0.00 0.00 48 1017.6
20210925023314 74 70 0.0 0.0 0.00 0.00 0.00 49 1017.7
20210925022815 75 78 1.0 3.0 0.00 0.00 0.00 47 1017.5
20210925022316 75 100 2.0 3.0 0.00 0.00 0.00 47 1017.3
20210925021813 75 75 1.0 2.0 0.00 0.00 0.00 47 1017.3
20210925021314 75 72 0.0 2.0 0.00 0.00 0.00 47 1017.4
20210925020817 75 69 0.0 2.0 0.00 0.00 0.00 46 1017.2
20210925020316 76 75 1.0 2.0 0.00 0.00 0.00 45 1017.1
20210925015817 76 105 2.0 4.0 0.00 0.00 0.00 44 1017.1
20210925015316 75 95 2.0 4.0 0.00 0.00 0.00 44 1017.2